#timestamp,LO_Frequency,Hit,StdDev 
1634212815.8,286047000.4,N
1634212835.6,286046998.5,N
1634212855.5,286046996.5,N
1634212875.3,286046997.0,N
1634212895.2,286046997.1,N
1634212915.9,286046998.8,N
1634212935.7,286046996.6,N
1634212955.6,286046999.7,N
1634212975.4,286047000.1,N
1634212995.2,286046999.7,N
1634213015.1,286047000.2,N
1634213016.0,286047000.2,N
1634213035.8,286047005.3,Y
1634213055.7,286047004.8,P
1634213075.5,286047005.9,N
1634213095.3,286047004.4,N
1634213115.2,286046999.7,N
1634213135.0,286047002.8,N
1634213135.9,286047002.8,N
1634213155.8,286047002.8,N
1634213175.6,286047000.3,N
1634213195.4,286047000.5,N
1634213215.3,286046999.7,N
1634213235.1,286046998.1,N
1634213255.8,286046998.4,N
1634213275.7,286046999.0,N
1634213295.5,286046997.1,N
1634213315.4,286046997.5,N
1634213335.2,286046996.7,N
1634213355.0,286046994.9,N
1634213355.9,286046994.9,N
1634213375.8,286046993.5,N
1634213395.6,286046994.7,N
1634213415.5,286046992.6,N
1634213435.3,286046992.6,N
1634213455.1,286046992.5,N
1634213475.9,286046990.4,N
1634213495.7,286046990.9,N
1634213515.5,286046993.9,N
1634213535.4,286046993.9,N
1634213555.2,286046991.7,N
1634213575.0,286046994.3,N
1634213576.0,286046994.3,N
1634213595.8,286046994.6,N
1634213615.6,286046996.2,N
1634213635.5,286046996.2,N
1634213655.3,286046996.0,N
1634213675.1,286046996.0,N
1634213695.9,286046995.0,N
1634213715.7,286046995.3,N
1634213735.6,286046997.1,N
1634213755.4,286046996.8,N
1634213775.2,286046997.8,N
1634213795.1,286046997.4,N
1634213796.0,286046997.4,N
1634213815.8,286046997.9,N
1634213835.6,286046997.3,N
1634213855.5,286046998.0,N
1634213875.3,286046995.0,N
1634213895.2,286046995.5,N
1634213915.9,286046994.3,N
1634213935.7,286046993.9,N
1634213955.6,286046991.7,Y
1634213975.4,286047001.9,P
1634213995.3,286047001.3,N
1634214015.1,286047003.4,N
1634214016.0,286047003.4,N
1634214035.8,286047004.0,N
1634214055.7,286047002.7,N
1634214075.5,286046998.9,N
1634214095.3,286046999.6,N
1634214115.2,286046997.0,N
1634214135.0,286046997.4,N
1634214135.9,286046997.4,N
1634214155.8,286046996.5,N
1634214175.6,286046996.8,N
1634214195.4,286046996.8,N
1634214215.3,286046996.8,N
1634214235.1,286046997.6,N
1634214255.8,286046997.7,N
1634214275.7,286046996.5,N
1634214295.5,286046998.8,N
1634214315.4,286046999.3,N
1634214335.2,286046998.7,N
1634214355.0,286046999.2,N
1634214355.9,286046999.2,N
1634214375.8,286046999.5,N
1634214395.6,286046997.9,N
1634214415.5,286046996.4,N
1634214435.3,286046995.1,N
1634214455.1,286046997.8,N
1634214475.9,286046997.2,N
1634214495.7,286046997.3,N
1634214515.5,286046997.2,N
1634214535.4,286046999.4,N
1634214555.2,286046998.2,N
1634214575.1,286046998.5,N
1634214576.0,286046998.5,N
1634214595.8,286047001.0,N
1634214615.6,286047001.2,N
1634214635.5,286046998.5,N
1634214655.3,286047001.1,N
1634214675.1,286047001.1,N
1634214695.9,286047001.0,N
1634214715.7,286047000.6,N
1634214735.6,286047002.0,N
1634214755.4,286047000.5,N
1634214775.2,286047000.0,N
1634214795.1,286046998.2,N
1634214796.0,286046998.2,N
1634214815.8,286046999.6,N
1634214835.6,286046997.7,N
1634214855.5,286046999.6,N
1634214875.3,286046996.9,N
1634214895.2,286046996.8,N
1634214915.9,286046996.4,N
1634214935.7,286046995.4,N
1634214955.6,286046997.5,N
1634214975.4,286046996.9,N
1634214995.2,286046999.0,N
1634215015.1,286047001.2,N
1634215016.0,286047001.2,N
1634215035.8,286046999.5,N
1634215055.7,286046996.5,N
1634215075.5,286046999.4,N
1634215095.3,286046998.3,N
1634215115.2,286046997.7,N
1634215135.0,286046997.3,N
1634215135.9,286046997.3,N
1634215155.7,286046997.3,N
1634215175.6,286046993.3,Y
1634215195.4,286046998.0,P
1634215215.3,286046997.9,P
1634215235.1,286046996.9,P
1634215236.0,286046996.9,Y
1634215255.8,286046999.4,P
1634215275.7,286047002.6,P
1634215295.5,286047000.0,N
1634215315.3,286046998.2,N
1634215335.2,286046999.4,N
1634215355.0,286046998.7,N
1634215355.9,286046998.7,N
1634215375.8,286046999.6,N
1634215395.6,286046998.7,N
1634215415.4,286047001.2,N
1634215435.3,286047000.8,N
1634215455.1,286046999.9,N
1634215475.8,286047000.1,N
1634215495.7,286047000.2,N
1634215515.5,286046998.2,N
1634215535.4,286047000.0,N
1634215555.2,286046998.1,N
1634215575.0,286047001.2,N
1634215575.9,286047001.2,N
1634215595.8,286046999.3,N
1634215615.6,286046999.1,N
1634215635.4,286046999.2,N
1634215655.3,286047002.7,N
1634215675.1,286047001.3,N
1634215695.9,286047000.2,N
1634215715.7,286047000.6,N
1634215735.5,286047000.4,N
1634215755.4,286047000.3,N
1634215775.2,286047001.1,N
1634215795.0,286046997.1,N
1634215795.9,286046997.1,N
1634215815.8,286046998.9,N
1634215835.6,286047011.9,Y
1634215855.5,286047002.1,P
1634215875.3,286047005.9,P
1634215895.1,286047006.0,N
1634215915.9,286047003.4,N
1634215935.7,286047002.2,N
1634215955.6,286047002.0,N
1634215975.4,286047002.2,N
1634215995.2,286046999.9,N
1634216015.1,286047002.6,N
1634216016.0,286047002.6,N
1634216035.8,286046996.7,N
1634216055.6,286046997.0,N
1634216075.5,286046999.2,N
1634216095.3,286046999.5,N
1634216115.2,286046999.2,N
1634216135.9,286046997.3,N
1634216155.7,286046997.5,N
1634216175.6,286046997.8,N
1634216195.4,286046997.5,N
1634216215.2,286046995.6,N
1634216265.1,286046996.4,E
1634216275.0,286046994.9,N
1634216275.9,286046994.9,P
1634216295.8,286046999.6,P
1634216315.6,286046996.7,N
1634216335.4,286046997.7,N
1634216355.3,286046995.2,N
1634216375.1,286046996.0,N
1634216395.9,286046997.5,N
